TimeEST,TemperatureF,Dew PointF,Humidity,Sea Level PressureIn,VisibilityMPH,Wind Direction,Wind SpeedMPH,Gust SpeedMPH,PrecipitationIn,Events,Conditions,WindDirDegrees,DateUTC
12:53 AM,17.1,1.9,52,30.38,10.0,South,5.8,-,N/A,,Clear,190,2013-02-02 05:53:00
1:53 AM,17.1,3.0,54,30.38,10.0,WSW,8.1,-,N/A,,Partly Cloudy,240,2013-02-02 06:53:00
2:53 AM,16.0,1.9,54,30.35,10.0,WSW,6.9,-,N/A,,Clear,240,2013-02-02 07:53:00
3:53 AM,16.0,1.9,54,30.34,10.0,SW,8.1,-,N/A,,Clear,220,2013-02-02 08:53:00
4:53 AM,16.0,1.9,54,30.33,10.0,Variable,3.5,-,N/A,,Clear,0,2013-02-02 09:53:00
5:53 AM,16.0,1.9,54,30.34,10.0,SSW,5.8,-,N/A,,Clear,200,2013-02-02 10:53:00
6:53 AM,16.0,1.9,54,30.35,10.0,SW,3.5,-,N/A,,Clear,230,2013-02-02 11:53:00
7:53 AM,17.1,1.9,52,30.33,10.0,SSW,4.6,-,N/A,,Clear,210,2013-02-02 12:53:00
8:53 AM,18.0,3.9,54,30.32,10.0,Variable,3.5,-,N/A,,Clear,0,2013-02-02 13:53:00
9:53 AM,21.0,5.0,50,30.31,10.0,WSW,5.8,-,N/A,,Clear,240,2013-02-02 14:53:00
10:53 AM,21.9,3.9,46,30.29,10.0,SW,6.9,-,N/A,,Partly Cloudy,220,2013-02-02 15:53:00
11:53 AM,21.9,5.0,48,30.24,10.0,SW,6.9,-,N/A,,Overcast,220,2013-02-02 16:53:00
12:53 PM,24.1,5.0,44,30.21,10.0,SW,8.1,-,N/A,,Overcast,220,2013-02-02 17:53:00
1:53 PM,25.0,5.0,43,30.17,10.0,SW,5.8,-,N/A,,Overcast,230,2013-02-02 18:53:00
2:53 PM,24.1,7.0,48,30.14,10.0,Variable,5.8,-,N/A,,Overcast,0,2013-02-02 19:53:00
3:53 PM,23.0,14.0,68,30.12,1.8,SW,6.9,-,0.00,Snow,Light Snow,220,2013-02-02 20:53:00
4:10 PM,23.0,15.8,74,30.04,2.0,WSW,5.8,-,0.00,Snow,Light Snow,240,2013-02-02 21:10:00
4:18 PM,24.8,15.8,69,30.02,6.0,SW,5.8,-,0.00,,Haze,230,2013-02-02 21:18:00
4:53 PM,23.0,16.0,74,30.10,10.0,Variable,3.5,-,0.00,,Overcast,0,2013-02-02 21:53:00
5:13 PM,23.0,15.8,74,30.02,10.0,Variable,3.5,-,N/A,,Overcast,0,2013-02-02 22:13:00
5:26 PM,24.8,15.8,69,30.03,10.0,WSW,4.6,-,N/A,,Overcast,250,2013-02-02 22:26:00
5:53 PM,24.1,17.1,75,30.09,4.0,Calm,Calm,-,0.00,Snow,Light Snow,0,2013-02-02 22:53:00
6:53 PM,24.1,17.1,75,30.08,10.0,Calm,Calm,-,0.00,,Overcast,0,2013-02-02 23:53:00
7:53 PM,24.1,18.0,77,30.07,10.0,Calm,Calm,-,N/A,,Mostly Cloudy,0,2013-02-03 00:53:00
8:53 PM,24.1,18.0,77,30.06,10.0,Calm,Calm,-,N/A,,Overcast,0,2013-02-03 01:53:00
9:20 PM,24.8,19.4,80,29.98,3.0,Calm,Calm,-,0.00,Snow,Light Snow,0,2013-02-03 02:20:00
9:53 PM,25.0,19.0,78,30.04,3.0,Calm,Calm,-,0.00,Snow,Light Snow,0,2013-02-03 02:53:00
10:53 PM,24.1,19.9,84,30.03,2.0,Calm,Calm,-,0.00,Snow,Light Snow,0,2013-02-03 03:53:00
11:23 PM,24.8,19.4,80,29.96,3.0,Calm,Calm,-,0.00,Snow,Light Snow,0,2013-02-03 04:23:00
11:53 PM,24.1,19.0,81,30.03,6.0,Calm,Calm,-,0.00,,Haze,0,2013-02-03 04:53:00